Nur fliegen ist schöner ....

Willkommen beim Flugservice Bautzen GmbH

Wir sind eine nach europäischen Richtlinien zugelassene Flugschule und lizenziertes Luftfahrtunternehmen. Bei uns können sie nicht nur Rundflüge über die Oberlausitz oder Sachsen buchen, sondern in unserer Flugschule selber das Fliegen erlernen. Erfahrene Fluglehrer stehen Ihnen dabei zur Seite.

Wir bieten Ihnen außerdem spezielle Flüge zur Vermessung oder Fotoflüge für Luftbildaufnahmen an. In Zusammenarbeit mit dem Fallschirmsportclub Dresden und dem Cottbuser Fallschirmsportclub setzen wir am Flugplatz Bautzen und Neuhausen Fallschirmspringer ab.
Schauen Sie sich in Ruhe bei uns um und wenn Sie Fragen haben oder weitere Informationen benötigen, scheuen Sie sich nicht Kontakt mit uns aufzunehmen.

Gutscheine für Rundflüge und Tandemsprünge können Sie ganz leicht auch online in unserem Shop erwerben.

Terminkalender

Letzter Monat Januar 2021 Nächster Monat
Mo Di Mi Do Fr Sa So
week 53 1 2 3
week 1 4 5 6 7 8 9 10
week 2 11 12 13 14 15 16 17
week 3 18 19 20 21 22 23 24
week 4 25 26 27 28 29 30 31

Flugwetterinfo

[Quelle: ADDS]
METAR
EDDC 180420Z 20005KT 9999 -SN BKN021 BKN030 M06/M07 Q1019 =
EDDC 172300Z 1800/1824 16004KT 9999 SCT020 BECMG 1804/1807 BKN008 TEMPO 1805/1814 2000 -SN BR BKN004 BECMG 1808/1811 24007KT BECMG 1813/1816 BKN015 TEMPO 1816/1824 2500 -SNRA BKN010
TAF
EDDC 172300Z 1800/1824 16004KT 9999 SCT020 BECMG 1804/1807 BKN008 TEMPO 1805/1814 2000 -SN BR BKN004 BECMG 1808/1811 24007KT BECMG 1813/1816 BKN015 TEMPO 1816/1824 2500 -SNRA BKN010 =
SR / SS: 06:56 / 15:28 UTC (EDAB Flugplatz Bautzen 2021-01-18)

Öffnungszeiten

des Flugplatzes Bautzen erfahren Sie hier:

flugplatz bautzen logo
Flugservice Bautzen GmbH, Kornmarkt 34, 02625 Bautzen  Telefon: +49 (3591) 211105, Telefax: +49 (3591) 274512, E-Mail:  flugservice(at)fsbautzen.de